Tracking 23940 objects as of 1-Dec-2021
HD Live streaming from Space Station
objects crossing your sky now

OPS 4682 DEB

Track OPS 4682 DEB now!
10-day predictions


NORAD ID: 38361
Int'l Code: 1965-027BN
Perigee: 1,246.5 km
Apogee: 1,297.5 km
Inclination: 90.3 °
Period: 110.8 minutes
Semi major axis: 7642 km
RCS: 0.0081 m2 (small)
Launch date: April 3, 1965
Source: United States (US)
Launch site: AIR FORCE WESTERN TEST RANGE (AFWTR)

Note: This is SATELLITE DEBRIS
aabbcc
Your satellite tracking list
Your tracking list is empty




NASA's NSSDC Master Catalog

Two Line Element Set (TLE):
1 38361U 65027BN  21333.97808390  .00000223  00000-0  72178-3 0  9992
2 38361  90.2601 334.3119 0033358 331.2460  28.6821 12.99293440370275
Source of the keplerian elements: AFSPC